NORTHEAST SUFFOLK  -  Special Weather Statement Special Weather Statement        NORTHERN NASSAU  -  Special Weather Statement Special Weather Statement        NORTHWEST SUFFOLK  -  Special Weather Statement Special Weather Statement        SOUTHEAST SUFFOLK  -  Special Weather Statement Special Weather Statement        SOUTHERN NASSAU  -  Special Weather Statement Special Weather Statement        SOUTHWEST SUFFOLK  -  Special Weather Statement Special Weather Statement      

Active alerts

Northern Nassau
  Details for Northern Nassau Special Weather Statement
Southern Nassau
  Details for Southern Nassau Special Weather Statement
Northwest Suffolk
  Details for Northwest Suffolk Special Weather Statement
Southwest Suffolk
  Details for Southwest Suffolk Special Weather Statement
Northeast Suffolk
  Details for Northeast Suffolk Special Weather Statement
Southeast Suffolk
  Details for Southeast Suffolk Special Weather Statement


WXM80 ListenWXM80 Stop

You find our weather info also at:

UK Metoffice

WeatherCloud

Weather Underground

Northeastern Weather Network

AWEKAS

Citizen Weather Observer Program (CWOP)

HAMweather, WeatherForYou, PWS Weather


Weather Underground History page Text

Daily Summary for July 11, 2017 Units:  Metric    English   Both
« Previous Day
Next Day »
Daily Weekly Monthly Yearly Custom
  High: Low: Average:
Temperature: 31.9 °C 23.2 °C 26.5 °C
Dew Point: 23.9 °C 21.6 °C 22.6 °C
Humidity: 94 % 57 % 80 %
Wind Speed: 18.3 km/h 0 km/h 2.4 km/h
Wind Gust: 37 km/h - -
Wind:- - WSW
Pressure: 1013.4 hPa 1011.1 hPa -
Precipitation: 9.4 mm    
Historical Graphs
 
 
Tabular Data for July 11, 2017
Time Temperature Dew Point Pressure Wind Wind Speed Wind Gust Humidity Rainfall Rate (Hourly)
00:04 24.2 °C 21.9 °C 1013.4 hPa South 2.7 km/h 5.6 km/h 87 % 0 mm
00:09 24.2 °C 21.9 °C 1013.4 hPa SSW 1.3 km/h 5.6 km/h 87 % 0 mm
00:14 24.2 °C 21.9 °C 1013.4 hPa South 1 km/h 3.7 km/h 87 % 0 mm
00:19 24.2 °C 21.9 °C 1013.4 hPa SSE 3.7 km/h 5.6 km/h 87 % 0 mm
00:24 24.2 °C 21.9 °C 1013.4 hPa SSW 3.1 km/h 6.4 km/h 87 % 0 mm
00:29 24.2 °C 21.9 °C 1013.4 hPa SSW 0.5 km/h 5.6 km/h 87 % 0 mm
00:34 24.2 °C 21.9 °C 1013.1 hPa South 0.5 km/h 1.9 km/h 87 % 0 mm
00:39 24.2 °C 21.9 °C 1013.4 hPa South 1.1 km/h 5.6 km/h 87 % 0 mm
00:44 24.2 °C 21.9 °C 1013.4 hPa SSE 2.1 km/h 5.6 km/h 87 % 0 mm
00:49 24.2 °C 22.1 °C 1013.1 hPa South 3.2 km/h 5.6 km/h 88 % 0 mm
00:54 24.2 °C 22.1 °C 1013.1 hPa SSW 1.1 km/h 7.4 km/h 88 % 0 mm
00:59 24.2 °C 22.1 °C 1013.1 hPa SSE 3.2 km/h 6.4 km/h 88 % 0 mm
01:04 24.2 °C 22.1 °C 1013.1 hPa SSW 0.3 km/h 5.6 km/h 88 % 0 mm
01:09 24.2 °C 22.1 °C 1013.1 hPa SSW 1.6 km/h 5.6 km/h 88 % 0 mm
01:14 24.2 °C 22.1 °C 1013.1 hPa South 2.9 km/h 5.6 km/h 88 % 0 mm
01:19 24.1 °C 22 °C 1013.1 hPa SSW 3.2 km/h 5.6 km/h 88 % 0 mm
01:24 24.1 °C 22 °C 1012.8 hPa Calm   3.7 km/h 88 % 0 mm
01:30 24.1 °C 21.9 °C 1012.8 hPa SSW 1 km/h 5.6 km/h 88 % 0 mm
01:33 24.1 °C 21.9 °C 1012.8 hPa SE 1.1 km/h 1.9 km/h 88 % 0 mm
01:38 24.1 °C 21.9 °C 1012.8 hPa SSE 1.6 km/h 5.6 km/h 88 % 0 mm
01:43 24.1 °C 21.9 °C 1012.8 hPa SSE 4 km/h 6.4 km/h 88 % 0 mm
01:48 24 °C 21.9 °C 1012.8 hPa South 1.9 km/h 5.6 km/h 88 % 0 mm
01:53 24 °C 21.9 °C 1012.8 hPa South 1.8 km/h 4.8 km/h 88 % 0 mm
01:58 24 °C 21.9 °C 1012.8 hPa SSW 1.4 km/h 5.6 km/h 88 % 0 mm
02:04 24 °C 22.1 °C 1012.8 hPa SSW 3.4 km/h 5.6 km/h 89 % 0 mm
02:09 24 °C 22.1 °C 1012.8 hPa SW 1.1 km/h 3.2 km/h 89 % 0 mm
02:14 24 °C 22.1 °C 1012.4 hPa SE 3.9 km/h 9.3 km/h 89 % 0 mm
02:19 24 °C 22.1 °C 1012.4 hPa WSW 1.6 km/h 5.6 km/h 89 % 0 mm
02:24 24 °C 22.1 °C 1012.4 hPa SSW 0.6 km/h 5.6 km/h 89 % 0 mm
02:29 24 °C 22.1 °C 1012.4 hPa WSW 3.2 km/h 8 km/h 89 % 0 mm
02:34 24 °C 22.1 °C 1012.4 hPa South 1.3 km/h 6.4 km/h 89 % 0 mm
02:39 24 °C 22.1 °C 1012.4 hPa South 2.6 km/h 7.4 km/h 89 % 0 mm
02:44 24 °C 22.1 °C 1012.4 hPa South 0.5 km/h 3.7 km/h 89 % 0 mm
02:49 23.9 °C 22 °C 1012.4 hPa SW 2.9 km/h 5.6 km/h 89 % 0 mm
02:54 23.9 °C 22 °C 1012.1 hPa SSE 2.1 km/h 9.3 km/h 89 % 0 mm
02:59 23.9 °C 22 °C 1012.1 hPa SSE 0.5 km/h 1.9 km/h 89 % 0 mm
03:04 23.9 °C 22 °C 1012.1 hPa SE 4.5 km/h 11.1 km/h 89 % 0 mm
03:09 23.9 °C 22 °C 1012.1 hPa SSE 2.4 km/h 5.6 km/h 89 % 0 mm
03:14 23.9 °C 21.8 °C 1012.1 hPa SSW 1.4 km/h 3.7 km/h 88 % 0 mm
03:19 23.8 °C 21.7 °C 1012.1 hPa SE 1.6 km/h 9.7 km/h 88 % 0 mm
03:24 23.8 °C 21.7 °C 1011.7 hPa SSW 1.1 km/h 1.9 km/h 88 % 0 mm
03:29 23.8 °C 21.7 °C 1011.7 hPa SSW 2.4 km/h 3.7 km/h 88 % 0 mm
03:34 23.8 °C 21.7 °C 1011.7 hPa SSE 3.2 km/h 5.6 km/h 88 % 0 mm
03:40 23.8 °C 21.7 °C 1011.7 hPa SSW 4.2 km/h 5.6 km/h 88 % 0 mm
03:45 23.8 °C 21.9 °C 1011.7 hPa SSW 1.9 km/h 5.6 km/h 89 % 0 mm
03:50 23.8 °C 21.9 °C 1011.7 hPa SSE 1.3 km/h 5.6 km/h 89 % 0 mm
03:55 23.8 °C 21.9 °C 1011.7 hPa SSW 2.4 km/h 5.6 km/h 89 % 0 mm
04:00 23.8 °C 21.9 °C 1011.7 hPa South 1 km/h 5.6 km/h 89 % 0 mm
04:05 23.8 °C 22.1 °C 1011.7 hPa SE 0.8 km/h 3.2 km/h 90 % 0 mm
04:06 23.8 °C 22.1 °C 1011.7 hPa SSE 1 km/h 3.7 km/h 90 % 0 mm
04:11 23.8 °C 22.1 °C 1011.7 hPa South 1.9 km/h 5.6 km/h 90 % 0 mm
04:16 23.8 °C 22.1 °C 1011.7 hPa WSW 1.3 km/h 5.6 km/h 90 % 0 mm
04:21 23.8 °C 22.1 °C 1011.4 hPa West 0.5 km/h 1.9 km/h 90 % 0 mm
04:26 23.9 °C 22.2 °C 1011.4 hPa SSW 1.4 km/h 9.3 km/h 90 % 0 mm
04:32 23.9 °C 22.2 °C 1011.4 hPa SSE 3.5 km/h 7.4 km/h 90 % 0 mm
04:37 23.9 °C 22.2 °C 1011.4 hPa SE 3.1 km/h 7.4 km/h 90 % 0 mm
04:42 23.9 °C 22.2 °C 1011.4 hPa SE 2.9 km/h 5.6 km/h 90 % 0 mm
04:47 23.9 °C 22.2 °C 1011.1 hPa SSW 1.8 km/h 5.6 km/h 90 % 0 mm
04:52 24 °C 22.3 °C 1011.1 hPa West 3.2 km/h 9.3 km/h 90 % 0 mm
04:57 24 °C 22.3 °C 1011.4 hPa SSW 1.3 km/h 5.6 km/h 90 % 0 mm
05:02 24 °C 22.3 °C 1011.4 hPa WSW 2.6 km/h 3.7 km/h 90 % 0 mm
05:07 23.9 °C 22.2 °C 1011.7 hPa WSW 1 km/h 5.6 km/h 90 % 0 mm
05:12 23.9 °C 22.2 °C 1011.7 hPa SW 1 km/h 3.7 km/h 90 % 0 mm
05:17 23.9 °C 22.2 °C 1011.7 hPa SW 4.7 km/h 9.3 km/h 90 % 0 mm
05:22 23.9 °C 22.2 °C 1011.7 hPa WSW 0.6 km/h 3.2 km/h 90 % 0 mm
05:27 23.9 °C 22.2 °C 1011.7 hPa WNW 1.8 km/h 5.6 km/h 90 % 0 mm
05:32 23.9 °C 22.2 °C 1011.7 hPa WSW 1.6 km/h 5.6 km/h 90 % 0 mm
05:37 23.9 °C 22.2 °C 1011.7 hPa WSW 0.6 km/h 5.6 km/h 90 % 0 mm
05:42 23.8 °C 22.1 °C 1011.7 hPa Calm     90 % 0 mm
05:47 23.8 °C 22.1 °C 1011.4 hPa Calm     90 % 0 mm
05:52 23.8 °C 22.1 °C 1011.4 hPa Calm   1.9 km/h 90 % 0 mm
05:57 23.8 °C 22.1 °C 1011.7 hPa Calm     90 % 0 mm
06:02 23.8 °C 22.1 °C 1011.7 hPa Calm     90 % 0 mm
06:07 23.7 °C 22 °C 1011.4 hPa Calm     90 % 0 mm
06:12 23.7 °C 22 °C 1011.7 hPa Calm   1.9 km/h 90 % 0 mm
06:18 23.7 °C 21.9 °C 1011.4 hPa SW 0.2 km/h 7.4 km/h 90 % 0 mm
06:23 23.7 °C 21.9 °C 1011.4 hPa SW 0.3 km/h 3.7 km/h 90 % 0 mm
06:28 23.7 °C 21.9 °C 1011.4 hPa SW 1.1 km/h 1.6 km/h 90 % 0 mm
06:33 23.7 °C 22 °C 1011.4 hPa South 2.4 km/h 5.6 km/h 90 % 0 mm
06:38 23.7 °C 22 °C 1011.4 hPa WSW 1.3 km/h 4.8 km/h 90 % 0 mm
06:43 23.8 °C 22.1 °C 1011.4 hPa Calm   1.6 km/h 90 % 0 mm
06:48 23.8 °C 21.9 °C 1011.4 hPa WSW 3.2 km/h 5.6 km/h 89 % 0 mm
06:53 23.8 °C 21.9 °C 1011.4 hPa West 2.9 km/h 9.7 km/h 89 % 0 mm
06:58 23.9 °C 21.9 °C 1011.4 hPa WSW 0.6 km/h 6.4 km/h 89 % 0 mm
07:03 23.9 °C 22 °C 1011.4 hPa SSE 2.4 km/h 5.6 km/h 89 % 0 mm
07:08 24 °C 22.1 °C 1011.7 hPa WSW 3.5 km/h 9.3 km/h 89 % 0 mm
07:13 24.1 °C 22.1 °C 1011.7 hPa SW 5 km/h 11.3 km/h 89 % 0 mm
07:18 24.2 °C 22.2 °C 1011.7 hPa SW 6.9 km/h 7.4 km/h 89 % 0 mm
07:23 24.3 °C 22.4 °C 1011.7 hPa SSW 1.6 km/h 9.7 km/h 89 % 0 mm
07:28 24.4 °C 22.3 °C 1012.1 hPa SSW 1.6 km/h 8 km/h 88 % 0 mm
07:33 24.6 °C 22.5 °C 1011.7 hPa SW 3.9 km/h 11.3 km/h 88 % 0 mm
07:38 24.8 °C 22.7 °C 1012.1 hPa West 3.2 km/h 7.4 km/h 88 % 0 mm
07:43 24.9 °C 22.6 °C 1012.1 hPa West 2.9 km/h 5.6 km/h 87 % 0 mm
07:48 25 °C 22.5 °C 1012.1 hPa WSW 4.8 km/h 7.4 km/h 86 % 0 mm
07:53 25.1 °C 22.6 °C 1012.1 hPa WSW 7.6 km/h 12.9 km/h 86 % 0 mm
07:58 25.1 °C 22.4 °C 1012.1 hPa SW 7.1 km/h 9.3 km/h 85 % 0 mm
08:03 25.2 °C 22.4 °C 1012.1 hPa WSW 3.7 km/h 6.4 km/h 85 % 0 mm
08:08 25.2 °C 22.5 °C 1012.1 hPa SW 5.1 km/h 7.4 km/h 85 % 0 mm
08:13 25.3 °C 22.8 °C 1012.1 hPa WNW 2.6 km/h 9.3 km/h 86 % 0 mm
08:18 25.4 °C 22.7 °C 1012.4 hPa West 3.4 km/h 13 km/h 85 % 0 mm
08:23 25.4 °C 22.7 °C 1012.1 hPa WNW 5.3 km/h 11.1 km/h 85 % 0 mm
08:28 25.5 °C 22.8 °C 1012.1 hPa North 0.3 km/h 1.9 km/h 85 % 0 mm
08:33 25.5 °C 22.8 °C 1012.1 hPa North 1 km/h 1.9 km/h 85 % 0 mm
08:38 25.6 °C 22.8 °C 1012.1 hPa WNW 4.5 km/h 5.6 km/h 85 % 0 mm
08:44 25.6 °C 22.8 °C 1012.1 hPa WNW 1.4 km/h 1.9 km/h 85 % 0 mm
08:49 25.6 °C 22.9 °C 1012.1 hPa West 3.5 km/h 5.6 km/h 85 % 0 mm
08:54 25.6 °C 22.9 °C 1012.1 hPa West 1.3 km/h 5.6 km/h 85 % 0 mm
08:59 25.7 °C 22.8 °C 1012.1 hPa WNW 2.3 km/h 6.4 km/h 84 % 0 mm
09:04 25.7 °C 23 °C 1012.1 hPa WNW 1.1 km/h 7.4 km/h 85 % 0 mm
09:09 25.7 °C 23 °C 1012.1 hPa WNW 3.9 km/h 11.1 km/h 85 % 0 mm
09:14 25.8 °C 22.7 °C 1012.1 hPa West 6.3 km/h 13 km/h 83 % 0 mm
09:19 25.9 °C 22.8 °C 1012.1 hPa WSW 3.5 km/h 6.4 km/h 83 % 0 mm
09:24 25.9 °C 22.6 °C 1012.1 hPa WSW 3.7 km/h 11.1 km/h 82 % 0 mm
09:29 26.1 °C 22.6 °C 1012.1 hPa NW 6.6 km/h 12.9 km/h 81 % 0 mm
09:34 26.2 °C 22.7 °C 1012.1 hPa SSW 8 km/h 12.9 km/h 81 % 0 mm
09:39 26.4 °C 22.9 °C 1012.1 hPa WSW 6.8 km/h 7.4 km/h 81 % 0 mm
09:44 26.6 °C 22.8 °C 1012.1 hPa WSW 8.5 km/h 13 km/h 80 % 0 mm
09:49 26.8 °C 22.6 °C 1012.4 hPa WSW 3.4 km/h 13 km/h 78 % 0 mm
09:54 27.1 °C 22.9 °C 1012.1 hPa SW 6 km/h 11.1 km/h 78 % 0 mm
10:00 27.4 °C 23.1 °C 1012.4 hPa WSW 3.4 km/h 14.8 km/h 77 % 0 mm
10:05 27.7 °C 22.8 °C 1012.4 hPa West 2.4 km/h 5.6 km/h 75 % 0 mm
10:10 27.9 °C 22.8 °C 1012.4 hPa SW 5.6 km/h 9.7 km/h 74 % 0 mm
10:15 28.1 °C 22.6 °C 1012.4 hPa West 5.1 km/h 13 km/h 72 % 0 mm
10:20 28.3 °C 22.5 °C 1012.1 hPa SW 1.8 km/h 11.1 km/h 71 % 0 mm
10:25 28.3 °C 22.1 °C 1012.1 hPa WNW 5 km/h 11.1 km/h 69 % 0 mm
10:30 28.2 °C 22.2 °C 1012.1 hPa SW 1.3 km/h 5.6 km/h 70 % 0 mm
10:35 28.2 °C 22.4 °C 1012.1 hPa WNW 2.7 km/h 5.6 km/h 71 % 0 mm
10:40 28.1 °C 22.1 °C 1012.1 hPa West 4.3 km/h 11.1 km/h 70 % 0 mm
10:45 28 °C 22 °C 1012.1 hPa WSW 6 km/h 13 km/h 70 % 0 mm
10:50 28.1 °C 23.1 °C 1012.1 hPa WNW 6.8 km/h 11.1 km/h 74 % 0 mm
10:55 28.3 °C 23 °C 1012.1 hPa NW 1.3 km/h 5.6 km/h 73 % 0 mm
11:00 28.7 °C 22.7 °C 1012.1 hPa WSW 5 km/h 7.4 km/h 70 % 0 mm
11:05 29 °C 22.7 °C 1012.1 hPa WSW 3.4 km/h 7.4 km/h 69 % 0 mm
11:10 29.2 °C 22.2 °C 1012.1 hPa WSW 5.8 km/h 7.4 km/h 66 % 0 mm
11:15 29.4 °C 23.2 °C 1012.1 hPa WSW 7.2 km/h 11.1 km/h 69 % 0 mm
11:20 29.7 °C 23.4 °C 1012.1 hPa WNW 4.5 km/h 9.3 km/h 69 % 0 mm
11:25 29.9 °C 22.3 °C 1012.1 hPa West 4.2 km/h 7.4 km/h 64 % 0 mm
11:30 30 °C 22.4 °C 1012.1 hPa NW 6.4 km/h 11.1 km/h 64 % 0 mm
11:35 30.2 °C 22.6 °C 1012.1 hPa SW 5 km/h 9.3 km/h 64 % 0 mm
11:40 30.3 °C 22.4 °C 1012.1 hPa SW 7.6 km/h 13 km/h 63 % 0 mm
11:45 30.3 °C 21.9 °C 1012.1 hPa WSW 13.5 km/h 18.5 km/h 61 % 0 mm
11:50 30.2 °C 21.6 °C 1012.1 hPa West 5.5 km/h 13 km/h 60 % 0 mm
11:55 30.2 °C 22.1 °C 1012.1 hPa West 3.7 km/h 7.4 km/h 62 % 0 mm
12:00 30.3 °C 22.2 °C 1012.1 hPa WSW 7.2 km/h 11.3 km/h 62 % 0 mm
12:05 30.4 °C 22.6 °C 1012.1 hPa West 8.4 km/h 14.8 km/h 63 % 0 mm
12:10 30.6 °C 22.5 °C 1012.1 hPa West 5 km/h 16.7 km/h 62 % 0 mm
12:15 30.8 °C 22.9 °C 1011.7 hPa NNW 7.9 km/h 18.5 km/h 63 % 0 mm
12:20 31.1 °C 22.9 °C 1011.7 hPa SSW 5.1 km/h 9.7 km/h 62 % 0 mm
12:25 31.3 °C 22.9 °C 1011.7 hPa West 6.1 km/h 9.3 km/h 61 % 0 mm
12:31 31.5 °C 23.1 °C 1011.7 hPa WSW 8 km/h 16.1 km/h 61 % 0 mm
12:36 31.6 °C 22.6 °C 1012.1 hPa West 5 km/h 9.3 km/h 59 % 0 mm
12:41 31.7 °C 22.7 °C 1011.7 hPa SW 5.1 km/h 14.5 km/h 59 % 0 mm
12:46 31.7 °C 22.4 °C 1011.7 hPa SW 5.8 km/h 14.5 km/h 58 % 0 mm
12:52 31.8 °C 22.5 °C 1011.7 hPa West 5 km/h 14.8 km/h 58 % 0 mm
12:57 31.8 °C 22.8 °C 1012.1 hPa NW 6.6 km/h 13 km/h 59 % 0 mm
13:02 31.9 °C 22.9 °C 1011.7 hPa NW 4.3 km/h 14.8 km/h 59 % 0 mm
13:07 31.7 °C 22.2 °C 1011.7 hPa WSW 7.1 km/h 14.8 km/h 57 % 0 mm
13:12 31.6 °C 22.6 °C 1011.7 hPa West 6.4 km/h 9.3 km/h 59 % 0 mm
13:17 31.4 °C 22.9 °C 1011.7 hPa NW 3.4 km/h 9.7 km/h 61 % 0 mm
13:22 31.4 °C 22.9 °C 1011.7 hPa NW 5.1 km/h 13 km/h 61 % 0 mm
13:27 31.4 °C 22.9 °C 1011.7 hPa WNW 6.3 km/h 9.3 km/h 61 % 0 mm
13:32 31.4 °C 22.9 °C 1012.1 hPa SW 4 km/h 13 km/h 61 % 0 mm
13:37 31.3 °C 22.8 °C 1011.7 hPa WSW 3.5 km/h 9.3 km/h 61 % 0 mm
13:42 31.2 °C 22.5 °C 1011.7 hPa WNW 6.8 km/h 16.7 km/h 60 % 0 mm
13:47 31.1 °C 22.9 °C 1011.7 hPa WSW 4.5 km/h 9.3 km/h 62 % 0 mm
13:52 31 °C 22.9 °C 1011.7 hPa NNW 10.1 km/h 10.1 km/h 62 % 0 mm
13:57 30.9 °C 22.8 °C 1011.7 hPa SW 1.4 km/h 5.6 km/h 62 % 0 mm
14:02 30.9 °C 23.3 °C 1011.7 hPa West 0.6 km/h 3.7 km/h 64 % 0 mm
14:07 30.9 °C 22.8 °C 1011.7 hPa WSW 3.9 km/h 6.4 km/h 62 % 0 mm
14:12 31 °C 22.9 °C 1011.7 hPa West 0.5 km/h 5.6 km/h 62 % 0 mm
14:17 31 °C 23.1 °C 1011.7 hPa NW 4.7 km/h 7.4 km/h 63 % 0 mm
14:22 31.1 °C 23.2 °C 1012.1 hPa NW 6.3 km/h 16.7 km/h 63 % 0 mm
14:27 31.1 °C 23.2 °C 1011.7 hPa West 3.5 km/h 7.4 km/h 63 % 0 mm
14:32 31 °C 23.1 °C 1011.7 hPa WNW 3.2 km/h 5.6 km/h 63 % 0 mm
14:37 31 °C 23.9 °C 1011.7 hPa WNW 1.6 km/h 5.6 km/h 66 % 0 mm
14:42 30.9 °C 23.1 °C 1011.7 hPa NW 4.2 km/h 8 km/h 63 % 0 mm
14:47 30.8 °C 23.2 °C 1011.7 hPa West 3.7 km/h 6.4 km/h 64 % 0 mm
14:53 30.7 °C 23.1 °C 1012.1 hPa NW 3.4 km/h 8 km/h 64 % 0 mm
14:58 30.6 °C 23 °C 1011.7 hPa WNW 4.7 km/h 7.4 km/h 64 % 0 mm
15:03 30.5 °C 22.7 °C 1011.7 hPa NNE 4.5 km/h 7.4 km/h 63 % 0 mm
15:08 30.4 °C 23.1 °C 1012.1 hPa NW 5.1 km/h 7.4 km/h 65 % 0 mm
15:13 30.3 °C 22.8 °C 1012.1 hPa SW 1.6 km/h 9.3 km/h 64 % 0 mm
15:18 30.3 °C 23.4 °C 1011.7 hPa Calm   7.4 km/h 67 % 0 mm
15:23 30.2 °C 23.4 °C 1012.1 hPa NW 2.4 km/h 5.6 km/h 67 % 0 mm
15:28 30.2 °C 23.3 °C 1012.1 hPa NW 0.8 km/h 1.9 km/h 67 % 0 mm
15:33 30.1 °C 23.6 °C 1012.1 hPa WNW 4.8 km/h 11.1 km/h 68 % 0 mm
15:38 30.1 °C 22.8 °C 1012.1 hPa West 5.3 km/h 8 km/h 65 % 0 mm
15:43 30 °C 22.9 °C 1011.7 hPa WNW 1.3 km/h 5.6 km/h 66 % 0 mm
15:48 29.9 °C 23.4 °C 1011.7 hPa WNW 1.4 km/h 3.2 km/h 68 % 0 mm
15:53 29.9 °C 23.4 °C 1011.7 hPa WNW 0.8 km/h 3.2 km/h 68 % 0 mm
15:58 29.8 °C 23.6 °C 1012.1 hPa WNW 3.7 km/h 4.8 km/h 69 % 0 mm
16:03 29.7 °C 22.9 °C 1011.7 hPa West 3.1 km/h 5.6 km/h 67 % 0 mm
16:08 29.7 °C 23.2 °C 1011.7 hPa NNE 1.1 km/h 3.7 km/h 68 % 0 mm
16:13 29.8 °C 23.2 °C 1011.7 hPa West 0.6 km/h 11.1 km/h 68 % 0 mm
16:18 29.8 °C 22.8 °C 1011.7 hPa WSW 4.5 km/h 9.3 km/h 66 % 0 mm
16:23 29.8 °C 23.3 °C 1011.7 hPa WNW 0.8 km/h 5.6 km/h 68 % 0 mm
16:28 29.9 °C 23.3 °C 1011.7 hPa WNW 1.3 km/h 3.7 km/h 68 % 0 mm
16:33 29.9 °C 23.1 °C 1011.7 hPa WSW 0.3 km/h 1.6 km/h 67 % 0 mm
16:38 29.9 °C 22.9 °C 1011.7 hPa WSW 3.7 km/h 5.6 km/h 66 % 0 mm
16:43 30.2 °C 23.3 °C 1011.7 hPa SW 3.9 km/h 7.4 km/h 67 % 0 mm
16:48 30.3 °C 23.2 °C 1011.7 hPa SW 2.7 km/h 7.4 km/h 66 % 0 mm
16:54 30.4 °C 23.4 °C 1011.7 hPa SW 4.7 km/h 7.4 km/h 66 % 0 mm
16:59 30.6 °C 22.9 °C 1011.7 hPa SW 5.5 km/h 5.6 km/h 64 % 0 mm
17:04 30.6 °C 22.7 °C 1011.7 hPa WSW 4.2 km/h 11.1 km/h 63 % 0 mm
17:09 30.6 °C 23 °C 1011.7 hPa West 3.1 km/h 5.6 km/h 64 % 0 mm
17:14 30.7 °C 23.1 °C 1011.7 hPa SW 1.3 km/h 5.6 km/h 64 % 0 mm
17:19 30.8 °C 22.9 °C 1011.7 hPa SW 3.5 km/h 6.4 km/h 63 % 0 mm
17:24 30.7 °C 22.9 °C 1011.7 hPa Calm   1.9 km/h 63 % 0 mm
17:29 30.7 °C 22.9 °C 1011.4 hPa WSW 2.1 km/h 5.6 km/h 63 % 0 mm
17:34 30.7 °C 22.9 °C 1011.4 hPa WSW 0.5 km/h 3.7 km/h 63 % 0 mm
17:39 30.6 °C 22.9 °C 1011.4 hPa NW 1.3 km/h 5.6 km/h 64 % 0 mm
17:44 30.6 °C 22.9 °C 1011.7 hPa SW 2.4 km/h 6.4 km/h 64 % 0 mm
17:49 30.5 °C 23.2 °C 1011.4 hPa SW 1.3 km/h 3.7 km/h 65 % 0 mm
17:54 30.5 °C 22.7 °C 1011.4 hPa WNW 0.6 km/h 1.9 km/h 63 % 0 mm
17:59 30.4 °C 22.6 °C 1011.4 hPa WNW 3.1 km/h 5.6 km/h 63 % 0 mm
18:04 30.4 °C 22.9 °C 1011.4 hPa WNW 0.2 km/h 3.7 km/h 64 % 0 mm
18:09 30.3 °C 22.5 °C 1011.4 hPa WNW 1.9 km/h 3.7 km/h 63 % 0 mm
18:14 30.3 °C 23.2 °C 1011.4 hPa Calm   1.9 km/h 66 % 0 mm
18:19 30.1 °C 22.8 °C 1011.7 hPa WNW 1 km/h 3.7 km/h 65 % 0 mm
18:24 30 °C 23.7 °C 1012.4 hPa SSW 18.3 km/h 37 km/h 69 % 0.51 mm
18:26 29.7 °C 23.8 °C 1012.8 hPa SW 10.3 km/h 20.4 km/h 71 % 1.52 mm
18:31 28.7 °C 23.6 °C 1012.1 hPa NW 2.3 km/h 18.5 km/h 74 % 5.59 mm
18:34 28.3 °C 23.4 °C 1012.1 hPa NW 1 km/h 3.7 km/h 75 % 8.13 mm
18:39 27.8 °C 23.4 °C 1011.7 hPa Calm     77 % 8.13 mm
18:44 27.3 °C 23.4 °C 1012.1 hPa North 0.3 km/h 1.6 km/h 79 % 8.13 mm
18:49 26.9 °C 23.4 °C 1012.1 hPa Calm     81 % 8.13 mm
18:54 26.6 °C 23.2 °C 1012.4 hPa WSW 1.1 km/h 1.9 km/h 82 % 8.13 mm
18:55 26.5 °C 23.4 °C 1012.1 hPa WSW 0.3 km/h 3.7 km/h 83 % 8.38 mm
19:00 26.2 °C 23.2 °C 1012.1 hPa Calm   1.9 km/h 84 % 8.38 mm
19:05 25.9 °C 23.2 °C 1012.4 hPa Calm     85 % 8.38 mm
19:10 25.8 °C 23.3 °C 1012.1 hPa Calm     86 % 8.38 mm
19:15 25.6 °C 23.3 °C 1012.4 hPa Calm     87 % 8.38 mm
19:20 25.4 °C 23.3 °C 1012.1 hPa Calm     88 % 8.38 mm
19:25 25.3 °C 23.2 °C 1012.1 hPa Calm     88 % 7.37 mm
19:30 25.2 °C 23.3 °C 1012.1 hPa Calm   1.6 km/h 89 % 3.81 mm
19:35 25.2 °C 23.2 °C 1012.1 hPa Calm     89 % 0.25 mm
19:40 25.1 °C 23.1 °C 1012.4 hPa Calm     89 % 0.25 mm
19:45 25.1 °C 23.3 °C 1012.4 hPa Calm     90 % 0.51 mm
19:50 25.1 °C 23.5 °C 1012.1 hPa SE 0.6 km/h 3.7 km/h 91 % 0.76 mm
19:55 25 °C 23.4 °C 1012.1 hPa SE 0.5 km/h 1.9 km/h 91 % 0.76 mm
20:00 24.9 °C 23.4 °C 1012.4 hPa SE 1.1 km/h 1.9 km/h 91 % 0.76 mm
20:05 24.9 °C 23.4 °C 1012.4 hPa Calm   1.9 km/h 91 % 0.76 mm
20:10 24.9 °C 23.3 °C 1012.4 hPa SE 0.3 km/h 1.9 km/h 91 % 0.76 mm
20:16 24.8 °C 23.4 °C 1012.1 hPa SW 2.1 km/h 4.8 km/h 92 % 0.76 mm
20:21 24.8 °C 23.4 °C 1012.1 hPa Calm     92 % 1.02 mm
20:26 24.8 °C 23.4 °C 1012.1 hPa Calm   1.6 km/h 92 % 1.02 mm
20:31 24.7 °C 23.3 °C 1012.1 hPa Calm     92 % 0 mm
20:36 24.7 °C 23.3 °C 1012.1 hPa Calm   1.6 km/h 92 % 0 mm
20:41 24.6 °C 23.2 °C 1012.1 hPa Calm     92 % 0 mm
20:46 24.6 °C 23.2 °C 1012.1 hPa Calm     92 % 0.76 mm
20:51 24.5 °C 23.1 °C 1012.1 hPa Calm     92 % 0 mm
20:56 24.4 °C 23.1 °C 1012.1 hPa Calm   1.6 km/h 92 % 0 mm
21:01 24.4 °C 23 °C 1012.1 hPa Calm     92 % 0.25 mm
21:06 24.3 °C 22.9 °C 1012.1 hPa Calm     92 % 0.25 mm
21:11 24.3 °C 22.9 °C 1012.1 hPa Calm     92 % 0.25 mm
21:16 24.3 °C 22.9 °C 1012.1 hPa Calm     92 % 0.25 mm
21:21 24.2 °C 22.8 °C 1012.1 hPa Calm     92 % 0 mm
21:26 24.2 °C 22.8 °C 1012.1 hPa Calm     92 % 0 mm
21:31 24.2 °C 22.8 °C 1012.1 hPa Calm     92 % 0 mm
21:36 24.1 °C 22.7 °C 1012.1 hPa Calm     92 % 0 mm
21:41 24.1 °C 22.7 °C 1012.4 hPa Calm     92 % 0 mm
21:46 24.1 °C 22.7 °C 1012.4 hPa Calm     92 % 0 mm
21:51 24 °C 22.6 °C 1012.4 hPa Calm     92 % 0 mm
21:56 23.9 °C 22.6 °C 1012.8 hPa Calm     92 % 0 mm
22:01 23.9 °C 22.7 °C 1012.4 hPa Calm     93 % 0 mm
22:06 23.8 °C 22.6 °C 1012.4 hPa Calm     93 % 0 mm
22:11 23.8 °C 22.6 °C 1012.8 hPa Calm     93 % 0 mm
22:16 23.8 °C 22.6 °C 1012.8 hPa Calm     93 % 0 mm
22:22 23.7 °C 22.5 °C 1012.4 hPa Calm     93 % 0 mm
22:27 23.7 °C 22.4 °C 1012.8 hPa Calm     93 % 0 mm
22:32 23.7 °C 22.4 °C 1012.8 hPa Calm     93 % 0 mm
22:37 23.6 °C 22.4 °C 1012.8 hPa Calm     93 % 0 mm
22:42 23.6 °C 22.3 °C 1012.4 hPa Calm     93 % 0 mm
22:47 23.5 °C 22.3 °C 1012.4 hPa Calm     93 % 0 mm
22:52 23.5 °C 22.3 °C 1012.4 hPa Calm     93 % 0 mm
22:57 23.4 °C 22.2 °C 1012.4 hPa Calm     93 % 0 mm
23:02 23.4 °C 22.2 °C 1012.4 hPa Calm     93 % 0 mm
23:07 23.4 °C 22.2 °C 1012.4 hPa Calm     93 % 0 mm
23:12 23.3 °C 22.1 °C 1012.4 hPa Calm     93 % 0 mm
23:17 23.3 °C 22.1 °C 1012.4 hPa Calm     93 % 0 mm
23:22 23.3 °C 22.1 °C 1012.4 hPa Calm     93 % 0 mm
23:27 23.3 °C 22.1 °C 1012.4 hPa Calm     93 % 0 mm
23:32 23.2 °C 22 °C 1012.4 hPa Calm     93 % 0 mm
23:37 23.2 °C 22.2 °C 1012.4 hPa Calm     94 % 0 mm
23:42 23.2 °C 22.2 °C 1012.4 hPa Calm     94 % 0 mm
23:44 23.2 °C 22.2 °C 1012.4 hPa Calm     94 % 0 mm
23:49 23.2 °C 22.2 °C 1012.4 hPa Calm     94 % 0 mm
23:54 23.2 °C 22.2 °C 1012.4 hPa Calm     94 % 0 mm
23:59 23.2 °C 22.2 °C 1012.8 hPa Calm     94 % 0 mm
Crab Meadow Weather
Compliments of Weather Underground - 3 mb

Script developed by  Jim McMurry - jmcmurry@mwt.net Adapted for the template by  Wim van der Kuil - Leuven-Template.eu

Astronomy: One year on Pluto is equal to 248 Earth years.